,,Stat6,,Stat2,,Stat8,,Stat9,,Stat10,,Wind1,,Wind1,
time,status,PA1M_AVG,status,PR1M_SUM,status,RH1M_AVG,status,SR1M_AVG,status,TA1M_AVG,status,W1dAve1m,status,W1sAve1m,
2008-04-02, 00:00:00,VALID,918.915,VALID,0,VALID,100,VALID,-0.0169808,VALID,20.3473,VALID,340,VALID,0,
2008-04-02, 00:01:00,VALID,918.917,VALID,0,VALID,100,VALID,0,VALID,20.3532,VALID,340,VALID,0,
2008-04-02, 00:02:00,VALID,918.911,VALID,0,VALID,100,VALID,0,VALID,20.3632,VALID,340,VALID,0,
2008-04-02, 00:03:00,VALID,918.906,VALID,0,VALID,100,VALID,0,VALID,20.3672,VALID,340,VALID,0,
2008-04-02, 00:04:00,VALID,918.893,VALID,0,VALID,100,VALID,0,VALID,20.3635,VALID,340,VALID,0,
2008-04-02, 00:05:00,VALID,918.881,VALID,0,VALID,100,VALID,0,VALID,20.3665,VALID,340,VALID,0,
2008-04-02, 00:06:00,VALID,918.859,VALID,0,VALID,100,VALID,0,VALID,20.3732,VALID,340,VALID,0,
2008-04-02, 00:07:00,VALID,918.834,VALID,0,VALID,100,VALID,0,VALID,20.3794,VALID,340,VALID,0,
2008-04-02, 00:08:00,VALID,918.809,VALID,0,VALID,100,VALID,0.0169808,VALID,20.3957,VALID,340,VALID,0,
2008-04-02, 00:09:00,VALID,918.783,VALID,0,VALID,100,VALID,0,VALID,20.4024,VALID,340,VALID,0,
2008-04-02, 00:10:00,VALID,918.762,VALID,0,VALID,100,VALID,0,VALID,20.3929,VALID,320,VALID,0,
2008-04-02, 00:11:00,VALID,918.733,VALID,0,VALID,100,VALID,0,VALID,20.3797,VALID,259,VALID,0,
2008-04-02, 00:12:00,VALID,918.715,VALID,0,VALID,100,VALID,0,VALID,20.3759,VALID,259,VALID,0,
2008-04-02, 00:13:00,VALID,918.684,VALID,0,VALID,100,VALID,0,VALID,20.3727,VALID,259,VALID,0,
2008-04-02, 00:14:00,VALID,918.683,VALID,0,VALID,100,VALID,-0.0169808,VALID,20.3732,VALID,259,VALID,0,
2008-04-02, 00:15:00,VALID,918.663,VALID,0,VALID,100,VALID,0,VALID,20.3697,VALID,259,VALID,0,
2008-04-02, 00:16:00,VALID,918.671,VALID,0,VALID,100,VALID,0,VALID,20.3735,VALID,246,VALID,0,
2008-04-02, 00:17:00,VALID,918.667,VALID,0,VALID,100,VALID,-0.0169808,VALID,20.367,VALID,206,VALID,0.129167,
2008-04-02, 00:18:00,VALID,918.664,VALID,0,VALID,100,VALID,0,VALID,20.3473,VALID,204,VALID,0.307031,
2008-04-02, 00:19:00,VALID,918.675,VALID,0,VALID,100,VALID,-0.0169808,VALID,20.3213,VALID,213,VALID,0.312128,
2008-04-02, 00:20:00,VALID,918.683,VALID,0,VALID,100,VALID,-0.0339617,VALID,20.2888,VALID,227,VALID,0.830602,
2008-04-02, 00:21:00,VALID,918.678,VALID,0,VALID,100,VALID,-0.0339617,VALID,20.2664,VALID,234,VALID,0.37407,
2008-04-02, 00:22:00,VALID,918.674,VALID,0,VALID,100,VALID,0,VALID,20.2569,VALID,231,VALID,0.420987,
2008-04-02, 00:23:00,VALID,918.629,VALID,0,VALID,100,VALID,-0.0169808,VALID,20.2434,VALID,228,VALID,0.0025436,
2008-04-02, 00:24:00,VALID,918.604,VALID,0,VALID,100,VALID,0,VALID,20.2531,VALID,228,VALID,0,
2008-04-02, 00:25:00,VALID,918.586,VALID,0,VALID,100,VALID,-0.0339617,VALID,20.2499,VALID,229,VALID,0,
2008-04-02, 00:26:00,VALID,918.577,VALID,0,VALID,100,VALID,0,VALID,20.2494,VALID,236,VALID,0,
2008-04-02, 00:27:00,VALID,918.57,VALID,0,VALID,100,VALID,0,VALID,20.2561,VALID,226,VALID,0,
2008-04-02, 00:28:00,VALID,918.582,VALID,0,VALID,100,VALID,0,VALID,20.2559,VALID,214,VALID,0,
2008-04-02, 00:29:00,VALID,918.595,VALID,0,VALID,100,VALID,0,VALID,20.2726,VALID,214,VALID,0,
2008-04-02, 00:30:00,VALID,918.602,VALID,0,VALID,100,VALID,-0.0169808,VALID,20.2794,VALID,215,VALID,0,
2008-04-02, 00:31:00,VALID,918.608,VALID,0,VALID,100,VALID,0,VALID,20.2826,VALID,218,VALID,0,
2008-04-02, 00:32:00,VALID,918.596,VALID,0,VALID,100,VALID,-0.0169808,VALID,20.2794,VALID,208,VALID,0.204901,
2008-04-02, 00:33:00,VALID,918.589,VALID,0,VALID,100,VALID,-0.0169808,VALID,20.2664,VALID,191,VALID,0.700149,
2008-04-02, 00:34:00,VALID,918.576,VALID,0,VALID,100,VALID,-0.0169808,VALID,20.2599,VALID,198,VALID,0.320703,
2008-04-02, 00:35:00,VALID,918.566,VALID,0,VALID,100,VALID,0.0339617,VALID,20.2499,VALID,196,VALID,0.284784,
2008-04-02, 00:36:00,VALID,918.55,VALID,0,VALID,100,VALID,0.0169808,VALID,20.2531,VALID,195,VALID,0.497159,
2008-04-02, 00:37:00,VALID,918.53,VALID,0,VALID,100,VALID,0.0169808,VALID,20.2432,VALID,194,VALID,0.23952,
2008-04-02, 00:38:00,VALID,918.517,VALID,0,VALID,100,VALID,-0.0169808,VALID,20.2534,VALID,198,VALID,0.00605469,
2008-04-02, 00:39:00,VALID,918.517,VALID,0,VALID,100,VALID,0,VALID,20.2529,VALID,235,VALID,0.240057,
2008-04-02, 00:40:00,VALID,918.507,VALID,0,VALID,100,VALID,0.0169808,VALID,20.2564,VALID,228,VALID,0.471608,
2008-04-02, 00:41:00,VALID,918.498,VALID,0,VALID,100,VALID,0,VALID,20.2529,VALID,214,VALID,0.223828,
2008-04-02, 00:42:00,VALID,918.478,VALID,0,VALID,100,VALID,-0.0169808,VALID,20.2661,VALID,215,VALID,0,
2008-04-02, 00:43:00,VALID,918.466,VALID,0,VALID,100,VALID,-0.0169808,VALID,20.2734,VALID,229,VALID,0,
2008-04-02, 00:44:00,VALID,918.449,VALID,0,VALID,100,VALID,-0.0169808,VALID,20.2629,VALID,230,VALID,0,
2008-04-02, 00:45:00,VALID,918.441,VALID,0,VALID,100,VALID,-0.0169808,VALID,20.2731,VALID,230,VALID,0,
2008-04-02, 00:46:00,VALID,918.44,VALID,0,VALID,100,VALID,-0.0169808,VALID,20.2829,VALID,222,VALID,0.240513,
2008-04-02, 00:47:00,VALID,918.44,VALID,0,VALID,100,VALID,-0.0169808,VALID,20.2826,VALID,222,VALID,0.388317,
2008-04-02, 00:48:00,VALID,918.445,VALID,0,VALID,100,VALID,-0.0339617,VALID,20.2888,VALID,222,VALID,0.204901,
2008-04-02, 00:49:00,VALID,918.437,VALID,0,VALID,100,VALID,-0.0169808,VALID,20.2951,VALID,222,VALID,0,
2008-04-02, 00:50:00,VALID,918.414,VALID,0,VALID,100,VALID,0,VALID,20.3145,VALID,222,VALID,0,
2008-04-02, 00:51:00,VALID,918.398,VALID,0,VALID,100,VALID,-0.0169808,VALID,20.337,VALID,222,VALID,0,
2008-04-02, 00:52:00,VALID,918.359,VALID,0,VALID,100,VALID,0,VALID,20.3637,VALID,222,VALID,0,
2008-04-02, 00:53:00,VALID,918.322,VALID,0,VALID,100,VALID,0,VALID,20.36,VALID,212,VALID,0.0857599,
2008-04-02, 00:54:00,VALID,918.277,VALID,0,VALID,100,VALID,-0.0339617,VALID,20.3448,VALID,198,VALID,0.00225694,
2008-04-02, 00:55:00,VALID,918.267,VALID,0,VALID,100,VALID,0,VALID,20.3118,VALID,193,VALID,0,
2008-04-02, 00:56:00,VALID,918.253,VALID,0,VALID,100,VALID,-0.0169808,VALID,20.2759,VALID,171,VALID,0,
2008-04-02, 00:57:00,VALID,918.25,VALID,0,VALID,100,VALID,-0.0169808,VALID,20.2766,VALID,147,VALID,0,
2008-04-02, 00:58:00,VALID,918.271,VALID,0,VALID,100,VALID,0,VALID,20.2694,VALID,141,VALID,0,
2008-04-02, 00:59:00,VALID,918.282,VALID,0,VALID,100,VALID,-0.0339617,VALID,20.2534,VALID,139,VALID,0,
2008-04-02, 01:00:00,VALID,918.304,VALID,0,VALID,100,VALID,0.0169808,VALID,20.2499,VALID,139,VALID,0,
2008-04-02, 01:01:00,VALID,918.308,VALID,0,VALID,100,VALID,-0.0169808,VALID,20.2499,VALID,140,VALID,0,
2008-04-02, 01:02:00,VALID,918.312,VALID,0,VALID,100,VALID,0,VALID,20.2496,VALID,140,VALID,0,
2008-04-02, 01:03:00,VALID,918.307,VALID,0,VALID,100,VALID,-0.0169808,VALID,20.2604,VALID,135,VALID,0,
2008-04-02, 01:04:00,VALID,918.285,VALID,0,VALID,100,VALID,-0.0169808,VALID,20.2269,VALID,122,VALID,0.623698,
2008-04-02, 01:05:00,VALID,918.253,VALID,0,VALID,100,VALID,-0.0339617,VALID,20.2145,VALID,124,VALID,0.228849,
2008-04-02, 01:06:00,VALID,918.226,VALID,0,VALID,100,VALID,0,VALID,20.2047,VALID,140,VALID,0.863095,
2008-04-02, 01:07:00,VALID,918.204,VALID,0,VALID,100,VALID,-0.0169808,VALID,20.185,VALID,142,VALID,0.357244,
2008-04-02, 01:08:00,VALID,918.176,VALID,0,VALID,100,VALID,-0.0169808,VALID,20.1658,VALID,122,VALID,0,
2008-04-02, 01:09:00,VALID,918.163,VALID,0,VALID,100,VALID,0,VALID,20.1431,VALID,102,VALID,0,
2008-04-02, 01:10:00,VALID,918.153,VALID,0,VALID,100,VALID,0.0169808,VALID,20.1196,VALID,110,VALID,0,
2008-04-02, 01:11:00,VALID,918.154,VALID,0,VALID,100,VALID,-0.0169808,VALID,20.1069,VALID,112,VALID,0,
2008-04-02, 01:12:00,VALID,918.158,VALID,0,VALID,100,VALID,-0.0169808,VALID,20.0969,VALID,113,VALID,0,
2008-04-02, 01:13:00,VALID,918.176,VALID,0,VALID,100,VALID,0.0169808,VALID,20.1004,VALID,113,VALID,0,
2008-04-02, 01:14:00,VALID,918.184,VALID,0,VALID,100,VALID,0,VALID,20.0909,VALID,107,VALID,0.591388,
2008-04-02, 01:15:00,VALID,918.188,VALID,0,VALID,100,VALID,-0.0169808,VALID,20.0617,VALID,96,VALID,0.129987,
2008-04-02, 01:16:00,VALID,918.192,VALID,0,VALID,100,VALID,-0.0339617,VALID,20.0425,VALID,103,VALID,0,
2008-04-02, 01:17:00,VALID,918.186,VALID,0,VALID,100,VALID,-0.0169808,VALID,20.0395,VALID,102,VALID,0,
2008-04-02, 01:18:00,VALID,918.188,VALID,0,VALID,100,VALID,0,VALID,20.0233,VALID,104,VALID,0.0661337,
2008-04-02, 01:19:00,VALID,918.158,VALID,0,VALID,100,VALID,0,VALID,20.0228,VALID,112,VALID,0,
2008-04-02, 01:20:00,VALID,918.146,VALID,0,VALID,100,VALID,0,VALID,20.0417,VALID,119,VALID,0,
2008-04-02, 01:21:00,VALID,918.149,VALID,0,VALID,100,VALID,0.0169808,VALID,20.045,VALID,118,VALID,0,
2008-04-02, 01:22:00,VALID,918.131,VALID,0,VALID,100,VALID,0.0339617,VALID,20.0415,VALID,125,VALID,0,
2008-04-02, 01:23:00,VALID,918.118,VALID,0,VALID,100,VALID,0.0169808,VALID,20.0579,VALID,125,VALID,0.0518973,
2008-04-02, 01:24:00,VALID,918.129,VALID,0,VALID,100,VALID,0.0339617,VALID,20.0609,VALID,148,VALID,0.10389,
2008-04-02, 01:25:00,VALID,918.121,VALID,0,VALID,100,VALID,0.0339617,VALID,20.0707,VALID,150,VALID,0,
2008-04-02, 01:26:00,VALID,918.105,VALID,0,VALID,100,VALID,0.0509425,VALID,20.0939,VALID,153,VALID,0.151486,
2008-04-02, 01:27:00,VALID,918.079,VALID,0,VALID,100,VALID,0.0339617,VALID,20.0834,VALID,153,VALID,0.395952,
2008-04-02, 01:28:00,VALID,918.068,VALID,0,VALID,100,VALID,0.0679233,VALID,20.0896,VALID,165,VALID,0.621466,
2008-04-02, 01:29:00,VALID,918.065,VALID,0,VALID,100,VALID,0.0339617,VALID,20.0869,VALID,115,VALID,0.281808,
2008-04-02, 01:30:00,VALID,918.031,VALID,0,VALID,100,VALID,0.0339617,VALID,20.0901,VALID,124,VALID,0.580031,
2008-04-02, 01:31:00,VALID,918.019,VALID,0,VALID,100,VALID,0.0169808,VALID,20.0772,VALID,142,VALID,0.272222,
2008-04-02, 01:32:00,VALID,917.992,VALID,0,VALID,100,VALID,0.0169808,VALID,20.0674,VALID,143,VALID,0,
2008-04-02, 01:33:00,VALID,917.972,VALID,0,VALID,100,VALID,0.0509425,VALID,20.0772,VALID,149,VALID,0.694973,
2008-04-02, 01:34:00,VALID,917.956,VALID,0,VALID,100,VALID,0.0509425,VALID,20.0767,VALID,157,VALID,0.552401,
2008-04-02, 01:35:00,VALID,917.949,VALID,0,VALID,100,VALID,-0.0339617,VALID,20.0747,VALID,166,VALID,0.480808,
2008-04-02, 01:36:00,VALID,917.942,VALID,0,VALID,100,VALID,-0.0339617,VALID,20.0787,VALID,171,VALID,0.199826,
2008-04-02, 01:37:00,VALID,917.948,VALID,0,VALID,100,VALID,-0.0679233,VALID,20.0652,VALID,172,VALID,0.222942,
2008-04-02, 01:38:00,VALID,917.96,VALID,0,VALID,100,VALID,-0.0509425,VALID,20.0622,VALID,173,VALID,0,
2008-04-02, 01:39:00,VALID,917.981,VALID,0,VALID,100,VALID,-0.101885,VALID,20.069,VALID,172,VALID,0,
2008-04-02, 01:40:00,VALID,917.995,VALID,0,VALID,100,VALID,-0.0849042,VALID,20.059,VALID,172,VALID,0,
2008-04-02, 01:41:00,VALID,918.018,VALID,0,VALID,100,VALID,-0.0849042,VALID,20.046,VALID,172,VALID,0,
2008-04-02, 01:42:00,VALID,918.028,VALID,0,VALID,100,VALID,-0.0849042,VALID,20.0462,VALID,172,VALID,0,
2008-04-02, 01:43:00,VALID,918.037,VALID,0,VALID,100,VALID,-0.0849042,VALID,20.0203,VALID,172,VALID,0,
2008-04-02, 01:44:00,VALID,918.045,VALID,0,VALID,100,VALID,-0.0679233,VALID,20.0135,VALID,133,VALID,0,
2008-04-02, 01:45:00,VALID,918.034,VALID,0,VALID,100,VALID,-0.0509425,VALID,20.0108,VALID,116,VALID,0,
2008-04-02, 01:46:00,VALID,918.037,VALID,0,VALID,100,VALID,-0.0509425,VALID,20.02,VALID,116,VALID,0,
2008-04-02, 01:47:00,VALID,918.017,VALID,0,VALID,100,VALID,-0.101885,VALID,20.03,VALID,116,VALID,0,
2008-04-02, 01:48:00,VALID,918.001,VALID,0,VALID,100,VALID,-0.0849042,VALID,20.0265,VALID,116,VALID,0,
2008-04-02, 01:49:00,VALID,918.002,VALID,0,VALID,100,VALID,-0.0509425,VALID,20.0073,VALID,93,VALID,0.204723,
2008-04-02, 01:50:00,VALID,917.961,VALID,0,VALID,100,VALID,-0.0509425,VALID,19.9644,VALID,74,VALID,0.540015,
2008-04-02, 01:51:00,VALID,917.954,VALID,0,VALID,100,VALID,-0.0509425,VALID,19.9519,VALID,90,VALID,0,
2008-04-02, 01:52:00,VALID,917.934,VALID,0,VALID,100,VALID,-0.0849042,VALID,19.9427,VALID,116,VALID,0.0399503,
2008-04-02, 01:53:00,VALID,917.927,VALID,0,VALID,100,VALID,-0.0509425,VALID,19.9292,VALID,117,VALID,0.0744792,
2008-04-02, 01:54:00,VALID,917.914,VALID,0,VALID,100,VALID,-0.0679233,VALID,19.9362,VALID,117,VALID,0.0134766,
2008-04-02, 01:55:00,VALID,917.904,VALID,0,VALID,100,VALID,-0.0679233,VALID,19.9224,VALID,117,VALID,0,
2008-04-02, 01:56:00,VALID,917.878,VALID,0,VALID,100,VALID,-0.0679233,VALID,19.9297,VALID,117,VALID,0,
2008-04-02, 01:57:00,VALID,917.881,VALID,0,VALID,100,VALID,-0.0509425,VALID,19.9292,VALID,117,VALID,0,
2008-04-02, 01:58:00,VALID,917.847,VALID,0,VALID,100,VALID,-0.0679233,VALID,19.9259,VALID,117,VALID,0,
2008-04-02, 01:59:00,VALID,917.828,VALID,0,VALID,100,VALID,-0.0509425,VALID,19.9224,VALID,117,VALID,0,
2008-04-02, 02:00:00,VALID,917.811,VALID,0,VALID,100,VALID,-0.0509425,VALID,19.9187,VALID,117,VALID,0,
2008-04-02, 02:01:00,VALID,917.783,VALID,0,VALID,100,VALID,-0.0339617,VALID,19.9319,VALID,117,VALID,0,
2008-04-02, 02:02:00,VALID,917.771,VALID,0,VALID,100,VALID,-0.0339617,VALID,19.9554,VALID,117,VALID,0,
2008-04-02, 02:03:00,VALID,917.746,VALID,0,VALID,100,VALID,-0.0679233,VALID,19.9556,VALID,117,VALID,0,
2008-04-02, 02:04:00,VALID,917.726,VALID,0,VALID,100,VALID,-0.101885,VALID,19.9519,VALID,117,VALID,0,
2008-04-02, 02:05:00,VALID,917.702,VALID,0,VALID,100,VALID,-0.0509425,VALID,19.9484,VALID,117,VALID,0,
2008-04-02, 02:06:00,VALID,917.68,VALID,0,VALID,100,VALID,-0.101885,VALID,19.9359,VALID,117,VALID,0,
2008-04-02, 02:07:00,VALID,917.663,VALID,0,VALID,100,VALID,-0.0679233,VALID,19.8808,VALID,117,VALID,0,
2008-04-02, 02:08:00,VALID,917.627,VALID,0,VALID,100,VALID,-0.0509425,VALID,19.8251,VALID,110,VALID,0,
2008-04-02, 02:09:00,VALID,917.601,VALID,0,VALID,100,VALID,-0.0679233,VALID,19.7929,VALID,71,VALID,0,
2008-04-02, 02:10:00,VALID,917.579,VALID,0,VALID,100,VALID,-0.0339617,VALID,19.7405,VALID,71,VALID,0.478795,
2008-04-02, 02:11:00,VALID,917.565,VALID,0,VALID,100,VALID,-0.0679233,VALID,19.7085,VALID,71,VALID,0.798735,
2008-04-02, 02:12:00,VALID,917.548,VALID,0,VALID,100,VALID,-0.101885,VALID,19.6861,VALID,72,VALID,0.449405,
2008-04-02, 02:13:00,VALID,917.542,VALID,0,VALID,100,VALID,-0.0679233,VALID,19.6604,VALID,92,VALID,0,
2008-04-02, 02:14:00,VALID,917.538,VALID,0,VALID,100,VALID,-0.0509425,VALID,19.6342,VALID,115,VALID,0,
2008-04-02, 02:15:00,VALID,917.534,VALID,0,VALID,100,VALID,-0.0509425,VALID,19.6207,VALID,117,VALID,0,
2008-04-02, 02:16:00,VALID,917.542,VALID,0,VALID,100,VALID,-0.0169808,VALID,19.6274,VALID,125,VALID,0,
2008-04-02, 02:17:00,VALID,917.551,VALID,0,VALID,100,VALID,-0.0509425,VALID,19.6691,VALID,140,VALID,0,
2008-04-02, 02:18:00,VALID,917.566,VALID,0,VALID,100,VALID,-0.0509425,VALID,19.6953,VALID,137,VALID,0,
2008-04-02, 02:19:00,VALID,917.577,VALID,0,VALID,100,VALID,-0.118866,VALID,19.6926,VALID,124,VALID,0,
2008-04-02, 02:20:00,VALID,917.585,VALID,0,VALID,100,VALID,-0.0679233,VALID,19.6993,VALID,103,VALID,0.172619,
2008-04-02, 02:21:00,VALID,917.581,VALID,0,VALID,100,VALID,-0.0679233,VALID,19.6826,VALID,86,VALID,0.555889,
2008-04-02, 02:22:00,VALID,917.574,VALID,0,VALID,100,VALID,-0.0679233,VALID,19.6858,VALID,109,VALID,0.615371,
2008-04-02, 02:23:00,VALID,917.556,VALID,0,VALID,100,VALID,-0.0339617,VALID,19.6891,VALID,109,VALID,0.832564,
2008-04-02, 02:24:00,VALID,917.549,VALID,0,VALID,100,VALID,-0.0509425,VALID,19.7123,VALID,138,VALID,1.00223,
2008-04-02, 02:25:00,VALID,917.5,VALID,0,VALID,100,VALID,-0.0509425,VALID,19.731,VALID,137,VALID,0.892383,
2008-04-02, 02:26:00,VALID,917.484,VALID,0,VALID,100,VALID,-0.0679233,VALID,19.7467,VALID,154,VALID,1.04746,
2008-04-02, 02:27:00,VALID,917.448,VALID,0,VALID,100,VALID,-0.0849042,VALID,19.7832,VALID,149,VALID,0.865412,
2008-04-02, 02:28:00,VALID,917.408,VALID,0,VALID,100,VALID,-0.0509425,VALID,19.7864,VALID,156,VALID,1.31632,
2008-04-02, 02:29:00,VALID,917.388,VALID,0,VALID,100,VALID,-0.0509425,VALID,19.7929,VALID,155,VALID,1.38972,
2008-04-02, 02:30:00,VALID,917.357,VALID,0,VALID,100,VALID,-0.0679233,VALID,19.8059,VALID,161,VALID,1.18005,
2008-04-02, 02:31:00,VALID,917.343,VALID,0,VALID,100,VALID,-0.0509425,VALID,19.8124,VALID,157,VALID,1.19132,
2008-04-02, 02:32:00,VALID,917.334,VALID,0,VALID,100,VALID,-0.0509425,VALID,19.8189,VALID,165,VALID,1.14768,
2008-04-02, 02:33:00,VALID,917.343,VALID,0,VALID,100,VALID,-0.101885,VALID,19.8288,VALID,161,VALID,0.362909,
2008-04-02, 02:34:00,VALID,917.359,VALID,0,VALID,100,VALID,-0.0679233,VALID,19.8291,VALID,170,VALID,0,
2008-04-02, 02:35:00,VALID,917.378,VALID,0,VALID,100,VALID,0,VALID,19.8278,VALID,168,VALID,0.378196,
2008-04-02, 02:36:00,VALID,917.388,VALID,0,VALID,100,VALID,0.0169808,VALID,19.8303,VALID,181,VALID,0.128634,
2008-04-02, 02:37:00,VALID,917.423,VALID,0,VALID,100,VALID,0,VALID,19.8303,VALID,181,VALID,0,
2008-04-02, 02:38:00,VALID,917.442,VALID,0,VALID,100,VALID,0.0169808,VALID,19.8406,VALID,181,VALID,0,
2008-04-02, 02:39:00,VALID,917.45,VALID,0,VALID,100,VALID,0,VALID,19.8338,VALID,181,VALID,0,
2008-04-02, 02:40:00,VALID,917.46,VALID,0,VALID,100,VALID,0.0339617,VALID,19.8233,VALID,181,VALID,0,
2008-04-02, 02:41:00,VALID,917.472,VALID,0,VALID,100,VALID,0.0169808,VALID,19.85,VALID,181,VALID,0,
2008-04-02, 02:42:00,VALID,917.484,VALID,0,VALID,100,VALID,0.0679233,VALID,19.8401,VALID,181,VALID,0,
2008-04-02, 02:43:00,VALID,917.492,VALID,0,VALID,100,VALID,0.0339617,VALID,19.85,VALID,181,VALID,0,
2008-04-02, 02:44:00,VALID,917.504,VALID,0,VALID,100,VALID,0.0169808,VALID,19.8495,VALID,181,VALID,0,
2008-04-02, 02:45:00,VALID,917.514,VALID,0,VALID,100,VALID,0.0339617,VALID,19.8436,VALID,181,VALID,0,
2008-04-02, 02:46:00,VALID,917.509,VALID,0,VALID,100,VALID,0.0339617,VALID,19.8403,VALID,183,VALID,0,
2008-04-02, 02:47:00,VALID,917.5,VALID,0,VALID,100,VALID,-0.0169808,VALID,19.8243,VALID,192,VALID,0,
2008-04-02, 02:48:00,VALID,917.497,VALID,0,VALID,100,VALID,0.0339617,VALID,19.8114,VALID,192,VALID,0,
2008-04-02, 02:49:00,VALID,917.481,VALID,0,VALID,100,VALID,0.0679233,VALID,19.8111,VALID,192,VALID,0,
2008-04-02, 02:50:00,VALID,917.475,VALID,0,VALID,100,VALID,0,VALID,19.8179,VALID,192,VALID,0,
2008-04-02, 02:51:00,VALID,917.469,VALID,0,VALID,100,VALID,0.0169808,VALID,19.8146,VALID,192,VALID,0,
2008-04-02, 02:52:00,VALID,917.459,VALID,0,VALID,100,VALID,0.0169808,VALID,19.8016,VALID,192,VALID,0,
2008-04-02, 02:53:00,VALID,917.457,VALID,0,VALID,100,VALID,0,VALID,19.7951,VALID,192,VALID,0,
2008-04-02, 02:54:00,VALID,917.461,VALID,0,VALID,100,VALID,-0.0169808,VALID,19.8114,VALID,192,VALID,0,
2008-04-02, 02:55:00,VALID,917.461,VALID,0,VALID,100,VALID,0.0169808,VALID,19.8278,VALID,192,VALID,0,
2008-04-02, 02:56:00,VALID,917.46,VALID,0,VALID,100,VALID,0.0339617,VALID,19.8403,VALID,192,VALID,0,
2008-04-02, 02:57:00,VALID,917.455,VALID,0,VALID,100,VALID,0.0169808,VALID,19.8243,VALID,192,VALID,0,
2008-04-02, 02:58:00,VALID,917.448,VALID,0,VALID,100,VALID,0.0339617,VALID,19.8144,VALID,192,VALID,0,
2008-04-02, 02:59:00,VALID,917.44,VALID,0,VALID,100,VALID,0,VALID,19.8114,VALID,192,VALID,0,
2008-04-02, 03:00:00,VALID,917.434,VALID,0,VALID,100,VALID,0.0509425,VALID,19.7981,VALID,192,VALID,0,
2008-04-02, 03:01:00,VALID,917.441,VALID,0,VALID,100,VALID,0.0169808,VALID,19.7979,VALID,170,VALID,0,
2008-04-02, 03:02:00,VALID,917.43,VALID,0,VALID,100,VALID,0,VALID,19.8049,VALID,46,VALID,0,
2008-04-02, 03:03:00,VALID,917.441,VALID,0,VALID,100,VALID,0.0339617,VALID,19.7754,VALID,57,VALID,0,
2008-04-02, 03:04:00,VALID,917.446,VALID,0,VALID,100,VALID,0.0339617,VALID,19.7492,VALID,72,VALID,0,
2008-04-02, 03:05:00,VALID,917.446,VALID,0,VALID,100,VALID,-0.0679233,VALID,19.7313,VALID,73,VALID,0,
2008-04-02, 03:06:00,VALID,917.455,VALID,0,VALID,100,VALID,-0.0509425,VALID,19.7318,VALID,71,VALID,0,
2008-04-02, 03:07:00,VALID,917.463,VALID,0,VALID,100,VALID,-0.101885,VALID,19.715,VALID,71,VALID,0.315662,
2008-04-02, 03:08:00,VALID,917.47,VALID,0,VALID,100,VALID,-0.0849042,VALID,19.725,VALID,68,VALID,0.00555556,
2008-04-02, 03:09:00,VALID,917.48,VALID,0,VALID,100,VALID,-0.118866,VALID,19.725,VALID,63,VALID,0,
2008-04-02, 03:10:00,VALID,917.486,VALID,0,VALID,100,VALID,-0.0509425,VALID,19.7185,VALID,60,VALID,0,
2008-04-02, 03:11:00,VALID,917.489,VALID,0,VALID,100,VALID,-0.101885,VALID,19.7215,VALID,58,VALID,0,
2008-04-02, 03:12:00,VALID,917.471,VALID,0,VALID,100,VALID,-0.0849042,VALID,19.7377,VALID,51,VALID,0.22526,
2008-04-02, 03:13:00,VALID,917.456,VALID,0,VALID,100,VALID,-0.101885,VALID,19.7412,VALID,50,VALID,0.119234,
2008-04-02, 03:14:00,VALID,917.455,VALID,0,VALID,100,VALID,-0.0679233,VALID,19.754,VALID,59,VALID,0.0212054,
2008-04-02, 03:15:00,VALID,917.435,VALID,0,VALID,100,VALID,-0.0679233,VALID,19.7442,VALID,59,VALID,0,
2008-04-02, 03:16:00,VALID,917.424,VALID,0,VALID,100,VALID,-0.0509425,VALID,19.7507,VALID,59,VALID,0,
2008-04-02, 03:17:00,VALID,917.429,VALID,0,VALID,100,VALID,-0.0849042,VALID,19.7442,VALID,59,VALID,0,
2008-04-02, 03:18:00,VALID,917.411,VALID,0,VALID,100,VALID,-0.0849042,VALID,19.7637,VALID,59,VALID,0,
2008-04-02, 03:19:00,VALID,917.405,VALID,0,VALID,100,VALID,-0.0509425,VALID,19.7572,VALID,59,VALID,0,
2008-04-02, 03:20:00,VALID,917.4,VALID,0,VALID,100,VALID,-0.0169808,VALID,19.7757,VALID,59,VALID,0,
2008-04-02, 03:21:00,VALID,917.369,VALID,0,VALID,100,VALID,0.0509425,VALID,19.7919,VALID,59,VALID,0,
2008-04-02, 03:22:00,VALID,917.348,VALID,0,VALID,100,VALID,0.0509425,VALID,19.7814,VALID,59,VALID,0,
2008-04-02, 03:23:00,VALID,917.309,VALID,0,VALID,100,VALID,0.0169808,VALID,19.7849,VALID,92,VALID,0,
2008-04-02, 03:24:00,VALID,917.278,VALID,0,VALID,100,VALID,0.0169808,VALID,19.7779,VALID,112,VALID,0,
2008-04-02, 03:25:00,VALID,917.244,VALID,0,VALID,100,VALID,0.0169808,VALID,19.7592,VALID,112,VALID,0,
2008-04-02, 03:26:00,VALID,917.209,VALID,0,VALID,100,VALID,0.0169808,VALID,19.7422,VALID,108,VALID,0,
2008-04-02, 03:27:00,VALID,917.214,VALID,0,VALID,100,VALID,0,VALID,19.74,VALID,87,VALID,0,
2008-04-02, 03:28:00,VALID,917.191,VALID,0,VALID,100,VALID,0.0169808,VALID,19.7425,VALID,85,VALID,0,
2008-04-02, 03:29:00,VALID,917.177,VALID,0,VALID,100,VALID,0,VALID,19.7495,VALID,85,VALID,0,
2008-04-02, 03:30:00,VALID,917.195,VALID,0,VALID,100,VALID,0,VALID,19.736,VALID,85,VALID,0,
2008-04-02, 03:31:00,VALID,917.201,VALID,0,VALID,100,VALID,0,VALID,19.7138,VALID,86,VALID,0,
2008-04-02, 03:32:00,VALID,917.221,VALID,0,VALID,100,VALID,0.0339617,VALID,19.7008,VALID,88,VALID,0,
2008-04-02, 03:33:00,VALID,917.229,VALID,0,VALID,100,VALID,0.0339617,VALID,19.6838,VALID,88,VALID,0,
2008-04-02, 03:34:00,VALID,917.243,VALID,0,VALID,100,VALID,0.0339617,VALID,19.6684,VALID,88,VALID,0,
2008-04-02, 03:35:00,VALID,917.255,VALID,0,VALID,100,VALID,0,VALID,19.6686,VALID,88,VALID,0,
2008-04-02, 03:36:00,VALID,917.267,VALID,0,VALID,100,VALID,0,VALID,19.6681,VALID,88,VALID,0,
2008-04-02, 03:37:00,VALID,917.255,VALID,0,VALID,100,VALID,0,VALID,19.6976,VALID,84,VALID,0,
2008-04-02, 03:38:00,VALID,917.237,VALID,0,VALID,100,VALID,0.0339617,VALID,19.6943,VALID,66,VALID,0,
2008-04-02, 03:39:00,VALID,917.216,VALID,0,VALID,100,VALID,0,VALID,19.6873,VALID,63,VALID,0,
2008-04-02, 03:40:00,VALID,917.18,VALID,0,VALID,100,VALID,0.0339617,VALID,19.6876,VALID,63,VALID,0,
2008-04-02, 03:41:00,VALID,917.168,VALID,0,VALID,100,VALID,0,VALID,19.6913,VALID,63,VALID,0,
2008-04-02, 03:42:00,VALID,917.151,VALID,0,VALID,100,VALID,0,VALID,19.6881,VALID,63,VALID,0,
2008-04-02, 03:43:00,VALID,917.152,VALID,0,VALID,100,VALID,0,VALID,19.6749,VALID,63,VALID,0,
2008-04-02, 03:44:00,VALID,917.163,VALID,0,VALID,100,VALID,-0.0169808,VALID,19.6846,VALID,63,VALID,0,
2008-04-02, 03:45:00,VALID,917.157,VALID,0,VALID,100,VALID,-0.0169808,VALID,19.6878,VALID,63,VALID,0,
2008-04-02, 03:46:00,VALID,917.175,VALID,0,VALID,100,VALID,0,VALID,19.6778,VALID,63,VALID,0,
2008-04-02, 03:47:00,VALID,917.193,VALID,0,VALID,100,VALID,0,VALID,19.6711,VALID,63,VALID,0,
2008-04-02, 03:48:00,VALID,917.202,VALID,0,VALID,100,VALID,0,VALID,19.6719,VALID,63,VALID,0,
2008-04-02, 03:49:00,VALID,917.197,VALID,0,VALID,100,VALID,0.0169808,VALID,19.6554,VALID,63,VALID,0,